Location: Ahstedt
(52.2048°N, 10.1060°E)
Time: 22:52:51
(UTC+00:00)

ATLAS 2AS CENTAUR R/B - Pass Details

Date: 18 January 2026
Orbit: 1050 x 1161 km, 63.7° (Epoch: 7 February)

Event Time Altitude Azimuth Distance (km) Brightness Sun altitude
Exits shadow 03:16:43 50° 42° (NE) 1,327 3.3 -36.3°
Drops below altitude 10° 03:22:50 10° 106° (ESE) 2,865 5.6 -35.4°
Sets 03:25:34 0° 111° (ESE) 3,821 6.3 -35.0°
